This demonstration page uses our WeatherBlox Daily Observations layout. Learn more.

Left ArrowRight Arrow

30.21309, -93.2044

Hourly Observations for May 13, 2015

Temp ( °F °C ) Dew Point ( °F °C ) Humidity (%) Winds ( mph kmh ) Pressure ( in mb ) Visibility ( mi km ) Precip ( " mm )
12:15 am 00:15 Mostly Cloudy 72 22.1 66 18.8 82 82 E 6 9 30.15 1021 10 16 0.00 0.00
12:35 am 00:35 Cloudy 72 22 66 19 83 83 E 8 13 30.12 1020 10 16 0.00 0.00
12:55 am 00:55 Partly Cloudy 71 21.7 66 19 85 85 E 7 11 30.12 1020 10 16 0.00 0.00
1:15 am 01:15 Clear 71 21.6 66 19.1 86 86 E 6 9 30.12 1020 10 16 0.00 0.00
1:35 am 01:35 Clear 71 21.6 66 19.1 86 86 E 7 11 30.12 1020 10 16 0.00 0.00
1:55 am 01:55 Clear 71 21.5 66 19 86 86 ENE 3 6 30.12 1020 10 16 0.00 0.00
2:15 am 02:15 Partly Cloudy 71 21.4 66 19 86 86 E 5 7 30.12 1020 10 16 0.00 0.00
2:35 am 02:35 Mostly Cloudy with Light Rain 70 21.2 66 19 87 87 Calm 30.12 1020 10 16 0.00 0.00
2:55 am 02:55 Partly Cloudy 70 21.2 66 19.1 88 88 Calm 30.12 1020 10 16 0.00 0.00
3:15 am 03:15 Partly Cloudy 70 21.3 66 19 87 87 NNE 3 6 30.15 1021 10 16 0.00 0.00
3:35 am 03:35 Partly Cloudy 70 21.1 66 19.1 88 88 N 5 7 30.15 1021 10 16 0.00 0.00
3:55 am 03:55 Mostly Cloudy 70 21.1 66 19 88 88 N 5 7 30.15 1021 10 16 0.00 0.00
4:15 am 04:15 Cloudy 71 21.5 66 19.1 86 86 NNE 5 7 30.15 1021 10 16 0.00 0.00
4:35 am 04:35 Cloudy 71 21.4 67 19.2 87 87 N 5 7 30.15 1021 10 16 0.00 0.00
4:55 am 04:55 Cloudy 71 21.4 67 19.3 88 88 Calm 30.15 1021 10 16 0.00 0.00
5:15 am 05:15 Mostly Cloudy 70 21.2 67 19.5 90 90 NNE 3 6 30.15 1021 10 16 0.00 0.00
6:00 am 06:00 Mostly Clear 70 21 68 20 94 94 NE 8 13 30.15 1021 10 16 0.00 0.00
6:55 am 06:55 Mostly Cloudy 70 21 68 20 94 94 ENE 6 9 30.15 1021 10 16 0.00 0.00
7:55 am 07:55 Partly Cloudy 72 22 70 21 94 94 ENE 6 9 30.18 1022 10 16 0.00 0.00
8:50 am 08:50 Mostly Cloudy 72 22 70 21 94 94 ENE 7 11 30.18 1022 7 11 0.00 0.00
9:45 am 09:45 Mostly Cloudy 73 23 70 21 89 89 ENE 7 11 30.15 1021 7 11 0.00 0.00
10:50 am 10:50 Mostly Cloudy 75 24 72 22 89 89 ENE 14 22 30.15 1021 7 11 0.00 0.00
11:55 am 11:55 Mostly Cloudy 77 25 72 22 83 83 ESE 13 20 30.15 1021 7 11 0.00 0.00
1:55 pm 13:55 Mostly Cloudy 77 25 72 22 83 83 ESE 13 20 30.15 1021 7 11 0.00 0.00
2:50 pm 14:50 Cloudy 79 26 72 22 79 79 ESE 7 11 30.12 1020 10 16 0.00 0.00
3:50 pm 15:50 Cloudy 81 27 72 22 74 74 ESE 7 11 30.12 1020 10 16 0.00 0.00
4:50 pm 16:50 Cloudy 81 27 72 22 74 74 ESE 7 11 30.09 1019 10 16 0.00 0.00
5:50 pm 17:50 Cloudy 81 27 72 22 74 74 SE 10 17 30.09 1019 10 16 0.00 0.00
6:50 pm 18:50 Partly Cloudy 79 26 72 22 79 79 ESE 6 9 30.09 1019 10 16 0.00 0.00
7:50 pm 19:50 Mostly Sunny 75 24 72 22 89 89 SE 7 11 30.09 1019 10 16 0.00 0.00
8:50 pm 20:50 Mostly Clear 75 24 72 22 89 89 Calm 30.12 1020 10 16 0.00 0.00
9:50 pm 21:50 Mostly Clear 73 23 72 22 94 94 Calm 30.12 1020 10 16 0.00 0.00
10:15 pm 22:15 Clear 74 23.1 72 22.1 94 94 E 3 6 30.12 1020 10 16 0.00 0.00
10:35 pm 22:35 Clear 73 23 72 22 94 94 Calm 30.12 1020 10 16 0.00 0.00
10:55 pm 22:55 Clear 73 23 72 22 94 94 Calm 30.12 1020 10 16 0.00 0.00
11:15 pm 23:15 Clear 73 22.9 71 21.9 94 94 Calm 30.15 1021 10 16 0.00 0.00
11:35 pm 23:35 Clear 73 22.8 72 22 95 95 ENE 3 6 30.12 1020 10 16 0.00 0.00
11:55 pm 23:55 Clear 73 22.6 72 22 96 96 ENE 3 6 30.12 1020 7 11 0.00 0.00

Powered by AerisWeather